User: anonymous   Login
Location: Fauquembergues
(50.6005°N, 2.0987°E)
Time: 08:50:51
(UTC+00:00)
Language:

ERS-2 - Orbit

View from above orbital plane
View from above orbital plane
View from above satellite
View from above satellite

Ground track
Ground track

The orbit data is extracted from the following two-line orbital elements,

1 23560U 95021A   20272.56115702 +.00001298 +00000-0 +58508-4 0  9993
2 23560 098.5526 080.2458 0003636 161.3362 198.8005 15.23310312357816
Epoch (UTC): 28 September 2020 13:28:03
Eccentricity: 0.0003636
inclination: 98.5526°
perigee height: 493 km
apogee height: 498 km
right ascension of ascending node: 80.2458°
argument of perigee: 161.3362°
revolutions per day: 15.23310312
mean anomaly at epoch: 198.8005°
orbit number at epoch: 35781

The dashed part of the orbit path shows where the satellite is in the earth's shadow,  

DLR